Weather History for Middletown, OH

Change the Weather History Date:

Sunday, February 3, 2013

  Actual Average (KDAY) Record (KDAY)
Temperature  
Mean Temperature 21 °F 28 °F  
Max Temperature 27 °F 36 °F 62 °F (1927)
Min Temperature 12 °F 21 °F -12 °F (1985)
Degree Days  
Heating Degree Days 44 36  
Month to date heating degree days 110  
Since 1 July heating degree days 3433  
Cooling Degree Days 0 0  
Month to date cooling degree days 0  
Year to date cooling degree days 0  
Moisture  
Dew Point 17 °F    
Average Humidity 83    
Maximum Humidity 100    
Minimum Humidity 72    
Precipitation  
Precipitation 0.00 in 0.08 in 0.76 in (1901)
Month to date precipitation 0.25  
Year to date precipitation 2.96  
Snow  
Snow 0.00 in 0.20 in 3.40 in (2000)
Month to date snowfall 0.7  
Since 1 July snowfall 14.1  
Snow Depth -    
Sea Level Pressure  
Sea Level Pressure 30.03 in    
Wind  
Wind Speed 8 mph (West)    
Max Wind Speed 14 mph    
Max Gust Speed 21 mph    
Visibility 10 miles    
Events Snow    
T = Trace of Precipitation, MM = Missing Value Source: NWS Daily Summary

Daily Weather History Graph

Daily Weather History Graph

Search for Another Location

Airport:

Trip Planner

Search our weather history database for the weather conditions in past years. The results will help you decide how hot, cold, wet, or windy it might be!

Date:

Astronomy

Feb. 03, 2013 Rise Set
Actual Time 7:42 AM EST 6:00 PM EST
Civil Twilight 7:14 AM EST 6:28 PM EST
Nautical Twilight 6:42 AM EST 7:00 PM EST
Astronomical Twilight 6:11 AM EST 7:32 PM EST
Moon 1:09 AM EST (2/3) 11:37 AM EST (2/3)
Length of Visible Light 11h 13m
Length of Day
10h 17m
Waning Gibbous, 49% of the Moon is Illuminated
Feb 3
Waning Gibbous
Feb 10
New
Feb 17
First Quarter
Feb 25
Full
Mar 4
Last Quarter

Hourly Weather History & Observations

Time (EST) Temp. Windchill Dew Point Humidity Pressure Visibility Wind Dir Wind Speed Gust Speed Precip Events Conditions
12:15 AM 27.9 °F 21.5 °F 24.6 °F 88% 30.03 in 10.0 mi West 5.8 mph - N/A   Overcast
12:35 AM 27.9 °F 22.6 °F 24.6 °F 88% 30.02 in 10.0 mi West 4.6 mph - N/A   Overcast
12:55 AM 27.9 °F 22.6 °F 24.6 °F 88% 30.02 in 10.0 mi West 4.6 mph - N/A   Overcast
1:15 AM 27.9 °F 24.0 °F 24.8 °F 88% 30.01 in 10.0 mi WSW 3.5 mph - N/A Snow Light Snow
1:35 AM 27.9 °F 24.0 °F 24.8 °F 88% 30.00 in 10.0 mi West 3.5 mph - N/A   Overcast
1:55 AM 27.9 °F 24.0 °F 24.8 °F 88% 29.99 in 10.0 mi WSW 3.5 mph - N/A   Overcast
2:15 AM 27.9 °F 22.6 °F 24.6 °F 88% 29.99 in 10.0 mi West 4.6 mph - N/A   Overcast
2:35 AM 27.9 °F 22.6 °F 24.8 °F 88% 29.99 in 10.0 mi WSW 4.6 mph - N/A   Overcast
2:55 AM 27.9 °F 16.8 °F 24.6 °F 88% 29.99 in 10.0 mi West 13.8 mph 18.4 mph N/A Snow Light Snow
3:15 AM 27.9 °F 19.1 °F 25.3 °F 90% 29.98 in 10.0 mi West 9.2 mph - N/A   Overcast
3:35 AM 25.3 °F 14.7 °F 21.9 °F 87% 29.98 in 10.0 mi West 11.5 mph 18.4 mph N/A   Overcast
3:55 AM 24.8 °F 16.1 °F 20.7 °F 84% 29.98 in 10.0 mi West 8.1 mph - N/A   Overcast
4:15 AM 22.8 °F 13.6 °F 17.8 °F 81% 29.97 in 10.0 mi West 8.1 mph - N/A   Overcast
4:35 AM 21.6 °F 11.3 °F 16.7 °F 82% 29.97 in 10.0 mi West 9.2 mph - N/A   Overcast
4:55 AM 20.7 °F 8.8 °F 14.7 °F 78% 29.97 in 10.0 mi West 11.5 mph 17.3 mph N/A   Overcast
5:15 AM 19.4 °F 7.9 °F 11.8 °F 72% 29.97 in 10.0 mi West 10.4 mph 17.3 mph N/A   Overcast
5:35 AM 19.0 °F 9.0 °F 12.0 °F 74% 29.97 in 10.0 mi West 8.1 mph - N/A   Overcast
5:55 AM 17.6 °F 9.3 °F 11.7 °F 78% 29.96 in 10.0 mi WSW 5.8 mph - N/A   Overcast
6:15 AM 17.6 °F 8.2 °F 12.2 °F 79% 29.96 in 10.0 mi WSW 6.9 mph - N/A   Mostly Cloudy
6:35 AM 16.0 °F 5.3 °F 11.5 °F 82% 29.96 in 10.0 mi WSW 8.1 mph - N/A   Mostly Cloudy
7:15 AM 16.5 °F 6.0 °F 12.7 °F 85% 29.97 in 10.0 mi West 8.1 mph - N/A   Overcast
7:35 AM 15.8 °F 4.2 °F 12.2 °F 86% 29.98 in 10.0 mi West 9.2 mph - N/A   Overcast
7:55 AM 15.8 °F 4.2 °F 12.2 °F 86% 29.98 in 10.0 mi West 9.2 mph - N/A   Overcast
8:15 AM 15.8 °F 5.1 °F 12.0 °F 85% 29.98 in 10.0 mi WSW 8.1 mph - N/A   Overcast
8:35 AM 15.8 °F 6.1 °F 12.0 °F 85% 29.98 in 10.0 mi WSW 6.9 mph - N/A   Overcast
8:55 AM 15.8 °F 5.1 °F 11.8 °F 84% 29.99 in 10.0 mi West 8.1 mph - N/A   Overcast
9:15 AM 16.5 °F 5.1 °F 11.3 °F 80% 30.00 in 10.0 mi West 9.2 mph - N/A   Overcast
9:35 AM 17.6 °F 8.2 °F 12.7 °F 81% 30.00 in 10.0 mi West 6.9 mph - N/A   Overcast
9:55 AM 17.6 °F 3.7 °F 12.0 °F 79% 30.00 in 10.0 mi West 13.8 mph 18.4 mph N/A   Overcast
10:15 AM 17.6 °F 6.4 °F 11.7 °F 78% 30.00 in 10.0 mi West 9.2 mph - N/A   Overcast
10:35 AM 17.6 °F 4.3 °F 11.3 °F 76% 29.99 in 10.0 mi West 12.7 mph 16.1 mph N/A   Overcast
10:55 AM 17.6 °F 5.0 °F 11.1 °F 76% 30.00 in 10.0 mi West 11.5 mph 16.1 mph N/A   Overcast
11:15 AM 17.6 °F 7.3 °F 10.8 °F 75% 30.00 in 10.0 mi WNW 8.1 mph - N/A   Overcast
11:35 AM 18.5 °F 4.9 °F 11.3 °F 73% 30.01 in 10.0 mi West 13.8 mph - N/A   Overcast
11:55 AM 19.0 °F 8.2 °F 12.2 °F 75% 30.00 in 10.0 mi WNW 9.2 mph - N/A   Overcast
12:15 PM 19.4 °F 7.9 °F 12.0 °F 73% 30.00 in 10.0 mi WNW 10.4 mph - N/A   Overcast
12:35 PM 20.3 °F 8.3 °F 12.7 °F 73% 30.00 in 10.0 mi West 11.5 mph 18.4 mph N/A   Overcast
12:55 PM 20.3 °F 9.0 °F 12.6 °F 72% 29.99 in 10.0 mi West 10.4 mph 16.1 mph N/A   Overcast
1:15 PM 20.8 °F 9.0 °F 13.3 °F 73% 30.00 in 10.0 mi West 11.5 mph - N/A   Overcast
1:35 PM 21.0 °F 9.9 °F 13.6 °F 73% 30.00 in 10.0 mi West 10.4 mph - N/A   Overcast
1:55 PM 21.6 °F 11.3 °F 14.4 °F 74% 30.00 in 10.0 mi WNW 9.2 mph - N/A   Overcast
2:15 PM 21.6 °F 9.9 °F 14.5 °F 74% 30.02 in 10.0 mi WNW 11.5 mph 18.4 mph N/A   Overcast
2:35 PM 21.6 °F 8.8 °F 14.9 °F 76% 30.01 in 10.0 mi West 13.8 mph - N/A   Overcast
2:55 PM 22.8 °F 10.4 °F 16.3 °F 76% 30.02 in 10.0 mi West 13.8 mph 18.4 mph N/A Snow Light Snow
3:15 PM 22.8 °F 12.2 °F 16.5 °F 77% 30.03 in 10.0 mi WNW 10.4 mph 20.7 mph N/A Snow Light Snow
3:35 PM 22.8 °F 10.9 °F 16.7 °F 77% 30.04 in 10.0 mi West 12.7 mph - N/A Snow Light Snow
3:55 PM 22.8 °F 12.2 °F 17.1 °F 79% 30.05 in 10.0 mi WNW 10.4 mph 20.7 mph N/A   Overcast
4:15 PM 22.8 °F 11.5 °F 16.7 °F 77% 30.05 in 10.0 mi WSW 11.5 mph - N/A   Overcast
4:35 PM 23.9 °F 12.3 °F 18.3 °F 79% 30.05 in 10.0 mi West 12.7 mph 18.4 mph N/A   Overcast
4:55 PM 24.1 °F 14.4 °F 18.5 °F 79% 30.06 in 10.0 mi West 9.2 mph - N/A Snow Light Snow
5:15 PM 25.3 °F 14.7 °F 19.9 °F 80% 30.06 in 10.0 mi West 11.5 mph 17.3 mph N/A   Overcast
5:35 PM 25.3 °F 16.7 °F 20.3 °F 81% 30.07 in 10.0 mi West 8.1 mph - N/A Snow Light Snow
5:55 PM 25.3 °F 14.1 °F 20.8 °F 83% 30.07 in 10.0 mi West 12.7 mph 16.1 mph N/A   Overcast
6:15 PM 25.3 °F 16.0 °F 21.6 °F 86% 30.07 in 10.0 mi WSW 9.2 mph - N/A Snow Light Snow
6:35 PM 25.3 °F 16.7 °F 22.1 °F 87% 30.08 in 5.0 mi WSW 8.1 mph - N/A Snow Light Snow
6:55 PM 25.3 °F 14.7 °F 22.6 °F 89% 30.09 in 7.0 mi West 11.5 mph - N/A Snow Light Snow
7:15 PM 22.8 °F 11.5 °F 19.8 °F 88% 30.10 in 10.0 mi West 11.5 mph - N/A   Mostly Cloudy
7:35 PM 22.8 °F 13.6 °F 18.9 °F 85% 30.10 in 10.0 mi WSW 8.1 mph - N/A   Mostly Cloudy
7:55 PM 22.6 °F 15.3 °F 19.0 °F 86% 30.11 in 10.0 mi WSW 5.8 mph - N/A Snow Light Snow
8:15 PM 21.0 °F 12.4 °F 17.8 °F 87% 30.12 in 10.0 mi West 6.9 mph - N/A   Scattered Clouds
8:35 PM 20.3 °F 11.5 °F 17.1 °F 87% 30.12 in 10.0 mi West 6.9 mph - N/A   Clear
8:55 PM 20.3 °F 11.5 °F 16.9 °F 87% 30.13 in 10.0 mi WSW 6.9 mph - N/A   Scattered Clouds
9:15 PM 20.3 °F 13.8 °F 16.9 °F 87% 30.12 in 10.0 mi SW 4.6 mph - N/A   Clear
9:35 PM 18.5 °F 11.7 °F 15.8 °F 89% 30.13 in 10.0 mi SW 4.6 mph - N/A   Clear
9:55 PM 19.0 °F 10.0 °F 16.3 °F 89% 30.12 in 10.0 mi SW 6.9 mph - N/A   Clear
10:15 PM 17.6 °F 10.7 °F 16.5 °F 96% 30.13 in 10.0 mi SW 4.6 mph - N/A   Clear
10:35 PM 17.6 °F 12.3 °F 17.1 °F 98% 30.12 in 10.0 mi WSW 3.5 mph - N/A   Clear
10:55 PM 15.3 °F 7.9 °F 14.7 °F 98% 30.13 in 10.0 mi WSW 4.6 mph - N/A   Clear
11:15 PM 15.3 °F - 15.1 °F 99% 30.13 in 10.0 mi Calm Calm - N/A   Clear
11:35 PM 15.3 °F 9.6 °F 15.3 °F 100% 30.13 in 7.0 mi WSW 3.5 mph - N/A   Clear
11:55 PM 12.7 °F - 12.2 °F 98% 30.13 in 5.0 mi Calm Calm - N/A   Clear